This demonstration page uses our WeatherBlox Daily Observations layout. Learn more.

41.55636, -103.73856

Hourly Observations for August 31, 2015

Temp ( °F °C ) Dew Point ( °F °C ) Humidity (%) Winds ( mph kmh ) Pressure ( in mb ) Visibility ( mi km ) Precip ( " mm )
12:53 am 00:53 Clear 72 22.2 50 10 46 46 Calm 29.74 1007 10 16.0934 0 0
1:53 am 01:53 Clear 71 21.7 54 12.2 55 55 Calm 29.71 1006 10 16.0934 0 0
2:53 am 02:53 Clear 68 20 55 12.8 63 63 Calm 29.74 1007 10 16.0934 0 0
3:53 am 03:53 Mostly Cloudy 68 20 56 13.3 65 65 N 6 9 29.75 1007 10 16.0934 0 0.0254
4:53 am 04:53 Clear 67 19.4 54 12.2 63 63 undefined N/A 29.75 1007 10 16.0934 0 0
5:53 am 05:53 Clear 71 21.7 52 11.1 51 51 WNW 12 19 29.79 1009 10 16.0934 0 0
6:53 am 06:53 Partly Cloudy 74 23.3 51 10.6 45 45 WNW 16 26 29.78 1009 10 16.0934 0 0
7:53 am 07:53 Mostly Cloudy with Light Rain 69 20.6 56 13.3 63 63 WNW 9 15 29.82 1010 10 16.0934 0 0.0254
8:53 am 08:53 Partly Cloudy 73 22.8 56 13.3 55 55 NW 8 13 29.83 1010 10 16.0934 0 0.0254
9:53 am 09:53 Sunny 76 24.4 55 12.8 48 48 Calm 29.85 1011 10 16.0934 0 0
10:53 am 10:53 Mostly Cloudy 81 27.2 55 12.8 41 41 WNW 5 7 29.87 1012 10 16.0934 0 0
11:53 am 11:53 Partly Cloudy 85 29.4 49 9.4 29 29 WNW 6 9 29.85 1011 10 16.0934 0 0
12:53 pm 12:53 Sunny 87 30.6 49 9.4 27 27 Calm 29.85 1011 10 16.0934 0 0
1:53 pm 13:53 Sunny 86 30 50 10 29 29 VRB 3 6 29.85 1011 10 16.0934 0 0
2:53 pm 14:53 Sunny 87 30.6 49 9.4 27 27 ESE 12 19 29.83 1010 10 16.0934 0 0
3:53 pm 15:53 Sunny 87 30.6 51 10.6 29 29 ESE 8 13 29.83 1010 10 16.0934 0 0
4:53 pm 16:53 Sunny 84 28.9 52 11.1 33 33 ESE 12 19 29.83 1010 10 16.0934 0 0
5:53 pm 17:53 Sunny 80 26.7 54 12.2 41 41 SE 8 13 29.84 1011 10 16.0934 0 0
6:53 pm 18:53 Cloudy with Light Rain 69 20.6 58 14.4 68 68 SSW 13 20 29.91 1013 7 11.26538 0 0.0254
7:53 pm 19:53 Cloudy with Light Rain 75 23.9 49 9.4 40 40 WSW 20 31 29.93 1013 10 16.0934 0.01 0.254
8:10 pm 20:10 Cloudy with Nearby Thunderstorms 70 21 54 12 57 57 WSW 17 28 29.88 1012 10 16.0934 0 0
8:37 pm 20:37 Mostly Cloudy 71 21.7 52 11.1 51 51 NNW 20 31 29.83 1010 10 16.0934 0.01 0.254
8:53 pm 20:53 Mostly Cloudy 76 24.4 49 9.4 39 39 VRB 5 7 29.9 1013 10 16.0934 0.01 0.254
9:53 pm 21:53 Mostly Clear 67 19.4 55 12.8 66 66 SW 9 15 29.9 1012 10 16.0934 0 0
10:53 pm 22:53 Clear 64 17.8 55 12.8 73 73 WNW 3 6 29.87 1012 10 16.0934 0 0
11:53 pm 23:53 Clear 62 16.7 56 13.3 80 80 N 3 6 29.86 1011 10 16.0934 0 0

Powered by AerisWeather